Location: Unspecified
(53.6186°N, 1.3184°W)
Time: 02:09:13
(UTC+00:00)

ISS - Visible Passes

Search period start: 23 January 2018 00:00
Search period end: 02 February 2018 00:00
Orbit: 402 x 407 km, 51.6° (Epoch: 23 January)

Date Brightness Start Highest point End Pass type
(mag) Time Alt. Az. Time Alt. Az. Time Alt. Az.
27 Jan -1.7 18:37:38 10° S 18:39:14 16° SSE 18:39:14 16° SSE visible
28 Jan -1.4 17:46:42 10° SSE 17:47:45 11° SE 17:48:47 10° ESE visible
28 Jan -1.6 19:20:30 10° SW 19:21:52 21° SSW 19:21:52 21° SSW visible
29 Jan -2.5 18:28:30 10° SSW 18:31:19 27° SSE 18:31:46 26° SE visible
29 Jan -0.5 20:04:13 10° WSW 20:04:25 11° WSW 20:04:25 11° WSW visible
30 Jan -1.9 17:36:44 10° SSW 17:39:08 19° SSE 17:41:32 10° E visible
30 Jan -2.6 19:11:58 10° WSW 19:14:16 37° SW 19:14:16 37° SW visible
31 Jan -3.0 18:19:46 10° SW 18:22:51 39° SSE 18:24:03 27° ESE visible
31 Jan -0.9 19:55:51 10° W 19:56:43 17° W 19:56:43 17° W visible
01 Feb -2.5 17:27:41 10° SW 17:30:35 30° SSE 17:33:29 10° E visible
01 Feb -3.4 19:03:31 10° WSW 19:06:28 57° SSW 19:06:28 57° SSW visible
